Theta_e
315 313 315 315 318 319 323 327 327 326 322 319 319 319 317 317 317 317 318 318 318 320 318 318 325 329 330 331 334 334 330 337 340 335 333 332 332 334 333 332 334 336 335 334 331 329 333 337 337 338 336 331 325 327 329 323 323 331 333 332 332 332 332 332 331 333 335 334 334 336 336 335 334 333 333 332 331 329 328 332 333 332 332 331 331 330 331 331 329 329 329 329 329 330 330 330 330
314 315 316 317 321 318 323 329 330 327 322 316 317 319 315 315 317 318 321 322 319 320 323 327 331 332 332 329 328 330 329 331 330 330 332 332 334 334 334 333 335 337 335 335 333 331 334 337 338 338 335 331 326 323 325 319 320 329 333 332 332 332 332 332 331 334 334 332 334 336 336 334 333 332 332 332 331 328 327 331 332 332 331 330 330 330 331 331 329 328 329 329 329 329 329 329 330
313 317 318 317 321 321 328 329 327 326 321 317 321 321 314 316 319 321 323 319 318 321 327 330 330 329 329 326 323 326 328 329 328 331 335 335 335 335 335 333 335 338 335 337 336 335 337 338 339 338 334 332 328 322 321 318 319 327 332 332 332 332 332 331 331 334 333 331 332 335 336 335 333 332 332 332 331 327 327 331 331 331 330 329 330 331 331 332 330 328 328 329 329 329 329 328 329
315 320 320 318 322 328 340 334 329 326 319 320 321 319 319 322 321 321 319 316 320 324 323 322 325 323 324 326 325 326 330 332 331 333 336 335 336 336 334 333 336 337 337 337 337 337 337 338 338 337 334 331 328 323 322 320 319 325 330 332 332 332 332 331 332 334 333 332 333 334 335 335 333 332 331 329 327 326 329 331 330 330 329 329 330 330 331 331 331 328 328 328 329 329 329 328 328
317 322 318 320 326 330 336 326 325 324 319 321 318 317 323 325 320 319 315 315 321 321 317 322 330 325 324 329 329 330 329 332 333 332 336 335 335 335 333 335 336 337 338 338 338 338 337 338 337 337 334 329 327 323 322 321 319 321 327 331 332 332 332 331 331 333 333 334 335 335 335 334 333 332 330 325 324 327 329 329 328 328 328 328 329 330 330 331 330 329 329 328 328 328 329 328 328
319 321 318 319 319 320 324 317 319 322 322 322 318 318 321 322 317 318 317 315 318 315 314 321 329 331 330 329 328 330 329 333 334 333 335 335 336 334 334 335 337 338 338 338 339 338 337 337 337 338 333 329 326 324 323 322 320 319 325 329 331 331 331 331 330 332 333 333 334 334 334 334 333 331 329 325 325 329 329 328 328 328 328 329 329 329 330 331 330 330 330 329 328 326 327 327 327
319 321 323 322 318 319 325 322 324 325 317 314 316 316 319 319 316 319 319 318 318 313 315 319 326 331 329 326 329 330 331 334 333 334 335 335 337 334 333 335 338 338 338 339 338 338 338 337 337 338 333 328 327 325 323 322 321 320 321 324 328 331 331 330 330 332 332 332 332 333 333 333 332 331 330 328 327 328 327 327 328 328 328 329 329 330 331 331 331 330 330 327 326 325 326 326 327
319 322 326 330 326 324 329 324 325 324 313 311 313 316 320 318 316 321 320 320 319 314 320 325 324 326 323 325 334 333 331 335 334 336 335 336 338 334 333 335 337 338 339 339 338 339 337 337 338 338 334 328 328 328 325 322 322 320 319 319 323 328 330 331 331 331 331 330 331 332 332 332 332 331 331 330 327 327 327 327 327 328 328 329 329 330 330 331 331 331 328 326 326 326 326 325 325
318 319 324 329 326 323 328 321 317 318 315 316 314 317 321 315 315 320 319 316 315 318 327 329 323 318 321 328 335 331 331 335 335 336 335 337 337 334 333 333 336 338 339 338 338 338 337 338 338 337 334 328 329 330 325 323 321 320 319 319 320 323 327 330 331 330 330 330 330 331 331 331 330 330 331 330 328 326 326 326 327 328 328 328 329 329 330 330 331 330 328 325 325 326 325 323 324
318 319 322 328 327 320 320 317 316 317 316 318 314 317 320 314 316 318 318 314 314 323 326 323 322 318 322 333 334 329 333 335 336 337 336 337 335 334 333 331 335 337 338 338 339 338 337 338 337 337 333 328 328 329 326 324 321 320 319 319 322 323 324 328 331 331 331 330 329 330 330 330 329 329 331 330 329 326 326 327 327 328 328 329 329 329 330 331 331 330 328 325 324 326 325 323 323
324 324 327 329 326 318 317 318 320 323 319 318 315 316 317 314 316 317 315 314 315 321 319 317 324 328 331 335 333 330 332 335 337 337 336 337 335 334 332 330 333 337 337 338 339 338 337 338 337 336 333 328 327 329 328 326 322 321 319 319 321 322 322 324 329 331 331 331 330 330 329 329 329 329 331 329 328 327 326 327 327 328 328 329 329 329 330 330 330 329 328 326 325 325 324 324 324
325 328 338 333 325 319 320 321 320 329 328 320 317 316 315 314 316 316 314 315 314 317 318 317 322 330 336 336 330 327 331 337 336 336 337 336 336 334 332 329 332 336 336 338 339 338 338 338 337 336 334 330 327 329 329 328 325 322 320 318 318 319 318 321 326 329 331 331 330 329 329 329 329 329 330 329 328 326 326 327 327 328 327 327 328 329 330 329 329 328 327 326 325 324 324 324 325
331 331 338 326 320 321 321 321 318 327 329 320 316 312 311 314 317 317 316 317 315 318 317 315 321 326 332 331 325 326 331 337 336 336 338 336 337 335 333 332 332 335 336 337 338 338 338 338 338 336 335 331 327 328 328 330 328 324 322 319 318 317 316 318 322 326 329 330 329 328 328 328 328 328 328 328 328 326 325 326 327 327 325 326 327 328 329 328 328 327 325 325 324 323 323 324 325
335 334 334 322 315 321 321 319 319 322 322 320 316 310 311 315 317 316 316 316 316 318 312 311 322 326 325 323 322 331 335 336 337 337 338 337 338 336 335 335 334 335 336 337 338 338 338 337 338 337 336 333 327 327 329 330 329 327 324 321 319 318 317 316 318 322 325 327 327 327 328 328 326 326 326 326 326 325 324 326 326 326 325 325 327 327 328 327 326 325 324 324 323 323 323 324 324
328 331 333 328 317 319 318 316 322 324 321 320 314 311 314 313 312 316 315 316 316 312 311 313 319 320 321 321 319 329 334 336 337 337 338 338 337 338 336 336 336 335 335 336 337 337 338 337 338 337 337 335 329 326 329 330 330 329 326 323 321 319 318 316 317 320 322 324 324 325 327 327 326 325 325 325 325 324 323 325 326 326 325 325 325 325 326 325 325 325 324 323 322 323 323 323 324
325 332 332 328 318 317 317 315 320 322 321 318 310 310 316 312 309 316 311 312 316 309 314 320 315 318 321 320 320 324 333 337 337 336 337 337 337 338 337 336 336 335 335 336 337 337 337 337 337 337 336 335 331 325 328 331 331 330 329 326 323 321 319 317 316 317 319 322 323 323 324 325 325 323 324 324 324 323 321 323 326 326 325 323 323 324 325 325 325 325 324 323 322 322 322 322 323
326 336 333 323 319 319 317 316 318 319 322 317 310 311 317 315 309 311 306 307 315 313 319 319 315 321 323 320 321 326 335 337 335 336 337 337 337 336 336 336 336 335 335 336 337 337 336 337 336 336 334 335 333 327 328 331 331 331 330 328 326 323 322 320 318 316 316 319 320 322 322 321 322 322 322 322 323 323 320 322 325 325 323 321 321 323 324 325 325 324 322 321 322 321 321 321 322
334 339 332 321 319 321 319 321 319 318 320 316 312 314 317 317 311 310 308 312 316 314 319 319 320 322 321 322 324 328 335 336 335 336 337 338 337 337 337 336 336 336 336 336 337 337 336 337 336 335 333 333 333 329 328 330 331 332 331 330 328 325 323 322 321 318 316 316 317 319 320 319 319 321 320 320 321 322 320 321 325 323 320 320 320 322 323 324 323 321 321 321 321 321 321 321 321
335 333 326 325 326 320 317 321 318 315 317 316 314 312 315 315 313 311 312 316 316 316 317 317 322 323 323 324 325 330 334 336 336 336 337 337 337 337 337 336 336 335 335 335 336 336 336 336 336 335 333 331 332 330 328 329 331 332 332 331 330 327 325 324 323 321 318 316 315 316 317 318 318 319 319 319 320 322 320 319 322 322 320 319 319 320 321 322 321 320 320 320 320 321 321 321 321
326 327 326 329 330 320 314 318 318 315 314 316 315 310 313 312 312 311 313 317 315 318 319 316 321 324 329 326 324 330 333 335 336 336 337 337 337 337 337 336 335 334 335 335 335 336 337 336 336 336 335 331 330 330 328 327 329 331 332 332 331 329 327 325 324 322 321 318 315 315 315 315 315 316 317 317 318 321 320 317 318 319 319 319 318 319 319 320 320 320 320 319 320 320 320 320 320
318 323 327 324 322 318 315 316 316 314 312 316 315 311 312 310 310 312 314 317 316 320 319 317 321 325 336 328 324 331 332 334 336 336 337 336 337 336 336 336 335 335 334 334 334 335 336 337 336 336 336 333 330 329 328 326 327 330 331 332 331 330 329 328 326 323 323 321 318 317 315 313 312 312 314 314 316 317 318 317 316 315 316 316 316 317 318 320 320 320 318 318 318 318 319 319 319
316 316 319 319 317 316 314 313 314 312 311 314 315 313 312 310 311 314 315 316 318 320 315 316 316 322 340 331 326 331 332 334 335 335 336 336 337 336 336 335 335 335 334 335 334 335 336 337 336 335 336 335 332 330 328 326 325 327 329 331 331 331 330 329 328 325 324 323 321 320 317 315 311 309 310 312 313 314 314 314 315 315 314 314 313 315 317 319 319 318 317 316 317 317 318 318 318
319 315 313 316 316 315 313 312 312 310 312 315 315 312 311 312 312 312 314 315 317 314 309 309 306 313 328 327 327 331 332 334 334 335 335 335 336 336 336 336 335 335 334 335 334 334 335 336 336 334 335 336 335 333 330 328 327 327 327 327 329 330 331 330 329 328 326 325 323 322 321 318 315 311 309 309 310 311 311 311 313 313 314 314 312 312 315 317 317 316 315 316 316 317 317 317 317
321 318 313 314 312 312 312 311 310 310 314 314 311 310 311 316 313 309 312 316 315 308 303 302 304 313 324 325 329 332 332 334 334 334 334 334 335 335 336 335 335 335 334 335 334 334 333 335 336 334 334 336 336 335 334 332 330 329 327 325 327 328 329 330 330 329 328 327 326 324 323 321 319 317 313 310 308 309 309 309 310 310 310 312 312 311 312 314 314 314 315 315 316 316 316 316 316
321 318 314 313 311 312 312 311 313 312 313 310 309 312 313 313 310 310 315 316 311 307 309 312 314 321 326 327 330 330 332 333 333 334 333 334 333 333 334 335 335 335 335 334 334 334 333 334 335 334 334 335 336 335 335 334 332 331 328 326 326 325 327 329 330 330 329 329 328 327 325 324 322 321 319 315 311 309 308 307 308 308 307 308 310 310 311 312 313 313 314 315 316 317 316 316 316
318 317 315 315 313 313 312 313 316 314 312 311 311 314 313 310 308 312 318 314 307 311 324 327 328 335 331 327 328 329 331 332 332 333 333 333 333 333 333 334 334 334 334 334 333 334 333 333 333 334 333 334 335 334 334 334 334 333 331 329 327 325 325 326 328 330 330 330 329 328 327 327 325 323 322 319 316 312 310 308 307 307 306 306 307 308 310 311 312 313 313 314 315 316 316 316 316
316 317 316 315 313 313 313 314 316 314 313 312 313 315 313 309 310 315 315 308 306 320 339 330 331 344 334 327 327 327 329 329 331 332 332 332 332 333 333 333 333 333 334 333 333 333 333 333 332 332 333 333 333 334 333 332 333 334 334 331 328 328 327 326 326 328 329 330 330 329 329 328 327 326 324 322 320 317 314 311 309 307 307 307 306 307 309 310 311 312 312 313 314 315 316 315 315
314 317 316 315 314 313 313 316 316 314 313 312 314 314 313 310 312 318 313 306 308 323 344 335 334 338 329 328 326 324 326 327 330 330 331 332 331 332 332 333 333 333 333 333 333 333 333 333 333 332 332 332 332 333 332 332 332 332 333 333 331 330 328 327 327 326 327 328 330 330 330 329 328 328 326 324 322 321 318 316 313 311 308 307 307 306 307 309 311 312 312 312 313 313 314 314 314
314 316 315 317 318 314 312 315 314 314 313 313 314 311 313 313 315 318 310 308 312 318 331 336 337 333 326 328 326 324 323 325 328 328 330 330 331 332 332 333 333 333 333 333 333 332 333 333 333 332 332 332 331 331 332 332 332 331 332 332 332 331 329 329 328 328 327 327 328 329 330 329 329 329 328 327 325 323 321 319 317 315 312 309 308 307 307 308 310 311 312 312 312 312 312 312 312
314 314 317 318 318 315 311 313 315 313 312 311 311 310 315 317 315 312 307 309 314 315 319 323 328 328 324 325 326 326 322 322 325 326 329 329 330 331 331 333 332 333 333 333 333 332 332 332 332 333 332 332 331 331 332 332 333 332 332 331 331 331 330 330 329 330 329 328 328 328 329 329 329 329 328 328 327 326 324 321 320 318 316 312 309 308 307 307 308 310 312 312 312 311 311 310 310
315 311 318 319 315 316 312 313 317 313 310 309 308 310 316 317 313 307 307 312 314 314 319 317 319 321 320 320 321 324 321 320 323 324 326 327 329 330 330 332 331 333 333 333 334 332 333 331 331 332 332 332 331 331 331 332 332 332 333 332 331 331 330 330 329 329 329 330 329 328 328 328 328 328 328 329 328 327 326 325 324 322 321 317 314 311 309 307 306 307 310 312 312 311 311 310 309
319 311 318 318 312 316 315 314 318 315 311 310 309 312 316 316 314 309 307 312 313 315 320 319 320 319 318 317 316 318 317 315 318 322 325 325 326 328 328 330 331 332 332 332 333 332 333 332 331 331 331 332 331 331 331 331 332 332 333 332 332 332 331 331 330 330 330 330 330 330 330 329 329 329 328 329 328 328 328 327 327 325 324 322 318 314 312 313 311 308 308 310 312 312 312 311 310
321 315 319 318 313 315 313 313 315 314 313 313 311 313 317 317 314 312 309 312 313 316 321 321 322 321 319 316 312 313 312 311 312 314 321 324 325 326 326 328 328 330 330 331 332 332 332 332 332 331 331 331 330 331 331 331 332 332 333 333 333 333 332 332 331 332 332 331 331 331 331 330 329 329 329 329 328 329 328 328 328 327 326 324 322 318 316 318 319 315 311 310 311 312 312 311 311
317 318 319 316 316 314 312 314 313 311 313 314 313 313 317 317 315 316 313 311 312 316 320 320 320 319 318 315 313 312 311 312 310 307 313 319 321 325 325 326 326 327 328 329 330 331 331 331 331 332 331 331 330 330 330 331 332 332 333 333 333 333 333 333 332 333 333 332 332 332 332 331 330 329 329 329 328 328 328 328 328 327 327 326 325 324 322 322 322 320 316 313 312 312 313 313 313
316 318 316 313 314 312 313 317 313 311 313 314 315 314 316 318 316 316 312 310 314 317 317 316 315 316 314 313 313 312 310 312 309 305 307 310 313 317 320 323 325 326 327 327 328 329 329 330 330 331 331 331 331 330 331 331 332 333 333 334 333 333 333 333 333 333 333 333 333 333 332 332 332 331 330 329 328 328 328 328 328 327 327 325 324 325 324 322 321 319 315 313 312 311 312 312 312
319 320 319 320 320 316 315 316 311 311 315 316 318 317 318 318 317 318 314 310 313 315 315 314 312 313 312 311 312 311 310 311 306 303 306 307 307 309 311 314 318 322 324 325 326 327 327 328 329 330 330 331 331 331 331 332 333 334 334 334 334 334 334 334 334 333 334 334 333 333 332 331 332 331 331 330 329 329 329 329 328 327 327 326 324 323 324 322 320 318 314 312 311 310 310 310 309
318 319 322 323 321 318 315 315 312 311 315 318 320 320 319 317 317 319 314 309 312 315 316 315 313 312 312 312 312 311 310 308 304 304 306 306 307 307 307 308 309 312 316 320 323 325 325 326 327 328 328 330 330 331 331 332 332 334 334 334 334 333 334 334 334 335 334 334 334 334 333 333 333 332 332 331 329 328 328 328 328 328 328 327 326 325 324 321 319 318 314 311 310 310 310 308 307
319 318 320 319 319 320 315 313 314 311 313 317 318 319 320 318 318 318 313 310 314 315 315 314 314 313 311 312 312 310 309 306 304 304 304 305 306 306 307 307 307 308 310 313 317 320 323 324 325 325 326 328 329 329 330 331 331 332 332 333 333 333 333 333 334 334 334 335 335 334 334 333 333 332 333 332 331 330 329 328 328 328 328 327 327 326 324 322 320 318 314 310 309 309 309 307 307
323 318 318 318 318 319 314 313 314 311 313 319 320 320 319 318 317 316 311 311 313 311 311 311 311 312 311 310 310 308 308 308 306 303 302 304 305 305 306 306 306 307 307 308 311 314 318 320 322 323 324 325 327 328 329 329 330 330 331 331 332 333 332 332 332 332 333 334 334 334 334 333 332 331 331 331 331 331 331 330 329 329 328 328 327 326 325 323 321 319 317 313 310 308 308 308 308
322 320 319 318 317 318 317 315 314 311 312 316 319 318 317 317 319 318 309 306 310 307 307 309 308 310 311 309 307 307 308 308 308 306 303 302 303 305 305 305 305 306 306 307 308 310 312 315 318 320 322 323 325 326 327 328 329 329 330 330 330 331 331 331 332 332 332 332 332 332 332 333 332 331 331 330 330 331 332 331 330 329 329 329 328 327 326 323 321 320 319 316 312 308 308 309 310
319 324 330 325 320 321 318 315 315 314 310 311 314 315 322 325 326 324 311 307 312 308 308 310 308 308 309 309 308 307 306 306 308 311 306 300 301 306 306 305 305 305 306 307 307 308 309 312 315 317 319 321 323 324 325 327 328 328 329 330 330 330 330 330 331 331 331 331 331 331 331 331 331 331 331 331 332 332 332 331 330 329 328 327 327 327 327 325 323 321 320 317 312 309 309 310 310
316 324 332 328 326 324 318 316 318 319 314 310 309 313 326 331 329 324 317 316 316 311 312 313 311 310 311 314 315 313 311 308 307 308 305 301 303 307 308 307 306 306 306 307 307 307 308 310 312 315 317 319 321 322 323 325 326 327 328 328 329 329 330 330 329 329 329 330 329 329 330 329 330 330 329 330 330 331 331 332 331 329 328 328 327 327 327 326 324 322 320 317 314 313 312 310 308
316 316 320 322 327 326 322 319 318 319 315 308 308 314 320 323 324 323 318 318 317 312 314 315 311 312 313 314 316 317 317 315 312 309 305 304 306 307 308 308 308 308 308 308 307 308 308 310 312 314 316 318 320 321 323 324 325 326 326 326 327 327 328 327 327 327 327 327 327 327 328 328 328 328 328 328 329 329 330 330 330 329 329 329 329 329 328 327 325 324 322 318 317 317 314 310 308
316 313 316 322 325 325 325 324 321 321 314 311 316 318 314 316 320 321 314 314 316 315 314 314 311 312 312 313 315 316 318 318 319 319 312 306 305 307 308 309 309 309 309 308 308 308 308 310 312 314 316 318 320 321 322 323 324 325 325 325 325 326 326 326 326 326 326 326 326 326 326 326 326 326 327 327 327 328 329 330 330 330 330 329 329 329 330 329 327 324 323 322 321 318 315 312 311
316 311 314 319 321 326 330 329 327 321 312 316 322 313 311 320 323 322 314 311 314 314 312 313 311 311 311 313 314 315 316 316 318 319 313 306 305 307 308 309 309 309 310 309 309 309 310 311 313 315 317 318 320 321 322 323 324 324 325 325 325 325 325 325 326 326 326 326 326 326 326 326 326 326 326 325 326 326 327 328 330 330 331 330 329 329 329 329 327 324 323 322 320 317 315 314 313
314 307 312 315 318 324 326 325 325 320 316 322 320 309 310 319 325 325 315 309 314 313 312 312 311 310 311 312 313 314 314 315 315 311 306 305 306 308 309 310 310 310 310 310 310 311 311 313 315 316 318 320 321 322 322 323 324 325 325 325 325 325 325 325 325 325 325 325 325 325 325 326 326 326 326 326 325 325 326 326 327 328 329 329 329 329 328 327 326 325 324 323 321 320 317 315 313
310 312 317 317 321 326 325 324 321 317 323 325 314 308 310 312 321 325 313 310 314 314 313 313 312 312 311 312 313 313 314 314 315 310 305 305 307 308 309 310 310 310 311 311 311 311 312 313 315 317 318 319 321 322 322 323 323 324 324 325 325 325 325 325 324 325 325 325 325 325 325 325 325 325 325 325 325 325 325 325 325 325 325 326 327 328 328 328 327 326 325 323 322 321 319 316 314
314 322 322 317 323 326 325 326 319 316 327 322 310 309 311 310 317 317 311 313 315 314 314 312 312 312 312 313 312 313 314 313 313 312 308 305 305 307 308 309 310 311 311 311 311 311 312 312 313 314 315 317 318 319 320 321 322 323 323 324 324 324 325 325 324 324 324 324 324 324 324 324 324 324 324 324 324 324 324 324 324 323 323 323 324 325 326 327 327 326 326 324 323 321 319 316 314
318 320 322 321 322 320 324 329 320 318 323 314 307 310 310 312 316 313 314 316 314 314 314 312 311 311 311 313 313 314 314 313 312 312 311 307 304 305 306 307 309 310 311 311 311 311 311 312 312 312 312 313 314 314 316 317 318 319 321 321 322 322 323 323 323 323 323 323 324 323 323 323 323 323 323 323 322 322 322 322 322 321 321 321 321 322 323 323 324 324 325 325 324 324 322 320 318
315 316 320 323 322 317 318 321 314 315 317 309 307 310 311 314 315 314 317 314 311 312 312 313 313 313 313 313 315 316 313 313 312 311 312 308 303 304 304 305 307 309 311 311 311 311 311 311 311 311 311 311 311 312 312 313 313 314 315 316 316 317 318 319 319 320 320 320 320 321 321 321 321 321 321 320 320 320 320 320 320 320 319 320 319 319 319 319 320 321 322 322 322 322 323 322 321
315 316 316 319 326 324 321 321 321 322 318 310 307 311 318 318 309 311 316 312 309 311 312 314 314 314 315 315 316 315 313 312 312 311 309 305 302 304 304 304 306 307 309 311 311 312 311 311 311 311 311 311 311 311 310 311 311 311 311 311 311 312 312 313 313 314 315 315 316 317 317 317 318 318 317 317 317 317 318 317 318 318 317 317 317 317 317 317 317 318 319 320 320 321 321 321 321
316 314 312 315 322 322 317 314 318 320 315 312 311 314 321 316 306 309 312 309 308 309 311 314 314 313 314 315 314 313 313 312 311 311 309 304 302 304 303 303 305 305 307 309 309 309 310 310 310 309 310 310 310 310 310 310 310 310 310 310 310 310 310 310 310 311 311 312 312 313 313 313 314 314 314 315 315 315 316 316 316 316 316 316 316 316 316 315 315 315 316 317 318 319 319 320 319
315 313 315 317 314 317 315 306 306 310 311 313 313 315 319 313 308 312 310 308 308 307 310 312 312 314 316 316 314 312 313 311 310 310 307 303 302 303 303 303 304 304 305 306 306 307 307 308 308 308 308 308 309 309 309 309 309 309 309 309 309 309 309 309 309 309 310 310 310 311 311 311 311 312 312 312 313 313 314 314 314 314 315 315 315 315 315 314 315 314 314 314 315 315 316 316 317
316 318 316 312 308 314 318 312 313 314 314 320 315 313 317 314 313 315 311 310 310 308 311 311 312 316 316 314 312 311 311 310 309 308 303 301 301 302 303 303 304 304 305 305 305 306 307 307 307 308 308 308 308 308 308 308 308 308 308 308 308 308 308 308 308 308 309 309 309 309 309 309 310 310 310 311 311 312 312 313 313 313 313 314 314 314 314 314 314 314 314 314 314 313 313 313 314
314 318 313 312 315 317 313 312 320 316 312 322 320 311 311 313 316 316 312 313 313 309 311 312 312 316 315 314 312 310 310 310 309 307 304 301 301 302 303 303 304 305 305 306 306 306 307 307 307 307 308 308 308 308 308 308 308 308 308 308 308 308 308 308 308 308 308 308 307 308 308 308 308 308 309 309 309 310 311 311 311 312 312 312 312 313 313 313 313 313 313 313 313 312 311 311 312
310 310 307 314 323 322 314 311 318 315 310 318 320 314 315 314 316 318 313 312 312 310 312 313 313 315 315 315 313 311 311 311 310 309 306 301 300 302 303 303 304 305 305 306 307 307 308 308 308 308 308 309 309 308 308 308 308 308 308 308 308 307 308 307 307 307 307 307 306 306 306 306 307 307 307 307 308 308 309 309 310 310 310 311 311 311 312 312 312 312 312 312 312 311 310 310 310
311 310 310 314 316 314 313 312 313 316 316 319 318 318 327 322 312 315 315 310 309 310 313 314 313 315 316 316 315 313 313 312 310 310 306 300 300 302 302 303 304 304 306 306 306 307 307 307 308 308 308 309 308 309 309 308 308 308 308 308 308 308 308 307 307 307 307 306 306 306 306 306 306 306 306 306 307 307 307 307 308 308 309 309 309 310 310 310 311 311 311 311 311 310 309 309 309
311 312 311 314 314 314 316 314 311 312 314 318 315 314 327 324 309 311 314 308 306 309 312 313 313 314 315 315 314 313 313 311 311 309 303 299 300 301 301 303 304 305 305 306 306 306 306 307 307 307 308 308 308 308 308 308 308 308 308 308 308 308 308 307 307 307 306 306 306 306 306 307 307 306 306 305 305 306 306 306 306 307 307 307 308 308 309 309 309 309 310 310 310 309 308 308 308
Wind_Speed
11 10 9 7 6 2 3 5 2 2 3 2 1 1 2 1 0 2 2 1 1 1 2 1 3 4 3 1 4 4 2 2 3 1 1 1 7 22 17 14 22 22 23 22 20 18 14 13 11 11 10 7 8 10 11 12 13 14 14 14 13 13 12 12 13 12 10 10 11 11 12 12 12 12 12 12 12 13 15 16 17 16 16 16 16 15 14 16 17 16 16 16 17 17 17 16 15
9 8 7 4 7 4 1 2 2 2 4 1 2 1 2 1 1 4 5 4 3 1 0 2 3 2 2 3 3 4 1 1 2 0 1 4 13 19 13 17 23 21 23 22 22 20 18 15 12 12 10 9 9 11 11 12 13 15 15 14 13 12 12 12 13 12 9 10 11 11 12 12 11 12 12 13 13 13 15 16 17 16 16 16 15 15 14 16 17 17 17 17 17 17 17 16 15
8 6 5 2 4 5 1 3 2 0 3 1 3 2 1 2 4 5 6 4 2 1 1 3 2 1 2 3 2 2 1 1 2 1 3 10 14 14 15 20 21 20 22 22 22 20 19 16 13 13 10 10 10 11 12 11 13 14 15 14 13 13 12 12 13 11 9 10 11 11 11 12 12 12 13 13 12 13 15 16 16 16 16 15 15 15 15 15 16 16 17 17 17 17 17 16 15
6 5 4 1 2 3 3 3 1 2 2 2 2 2 2 4 5 4 4 3 2 2 1 2 2 1 2 1 0 1 1 1 3 2 5 12 12 14 20 21 20 20 21 21 20 18 18 17 15 13 11 10 10 12 12 11 12 14 16 15 14 13 12 12 13 11 10 10 11 11 10 11 12 11 11 11 11 14 16 16 16 16 15 15 15 15 15 15 15 16 16 16 16 17 16 15 14
3 5 5 2 2 1 3 2 2 2 2 3 1 3 4 5 5 3 1 2 3 1 2 1 1 1 1 1 1 1 1 0 4 4 5 12 12 17 23 21 19 19 21 20 19 18 18 17 16 13 11 10 11 12 12 12 12 13 15 15 14 13 12 13 13 12 11 11 11 11 10 11 11 11 10 11 13 16 17 16 16 15 15 15 15 15 14 15 14 15 16 15 15 15 14 14 14
2 6 8 7 4 1 3 1 1 1 3 3 1 4 5 5 5 5 4 2 2 1 1 0 1 2 1 1 1 2 1 1 5 5 8 13 13 17 24 21 18 19 20 19 18 18 18 17 16 14 12 10 11 12 12 12 12 12 14 15 16 14 13 13 13 12 11 11 11 10 10 10 10 10 11 13 16 16 16 15 15 14 14 14 14 15 14 15 14 14 14 14 13 13 14 14 14
2 2 6 7 3 2 3 1 2 1 1 2 1 4 3 4 4 7 5 1 1 2 1 2 1 3 1 1 0 1 0 3 5 4 11 15 14 18 24 20 16 18 19 19 18 18 19 18 16 14 12 10 10 12 12 12 12 12 13 15 16 15 13 12 13 12 12 11 10 10 9 10 10 11 12 14 16 16 15 15 15 14 14 14 15 15 15 14 14 14 13 12 13 13 14 13 14
4 1 1 4 2 3 3 2 2 1 0 2 3 3 2 3 4 7 7 2 1 2 1 2 2 2 1 0 2 1 1 4 3 5 13 16 15 18 23 20 16 17 17 18 18 18 19 17 16 14 12 10 10 12 12 12 12 12 12 13 14 15 14 13 12 12 12 11 10 10 10 10 10 11 13 14 15 15 15 14 13 13 14 14 14 14 14 13 13 13 12 12 13 13 12 12 14
6 3 0 2 2 2 2 1 1 2 2 3 3 4 2 3 2 5 7 1 1 2 2 3 3 1 2 2 1 2 1 3 3 9 14 15 16 19 23 22 17 17 17 18 18 18 19 17 16 14 12 10 10 11 12 12 12 11 12 12 13 14 14 14 13 12 11 11 10 10 10 9 9 10 12 12 13 14 14 13 12 13 14 14 13 13 13 12 12 12 11 11 12 12 12 12 14
5 4 1 2 2 1 2 1 1 1 3 3 3 4 2 4 2 4 5 2 1 2 3 2 1 1 4 3 1 1 2 4 8 12 12 16 18 19 23 22 18 18 18 18 17 18 18 17 16 14 12 10 10 11 12 13 12 11 11 11 12 11 13 15 13 12 11 11 10 10 10 9 9 9 10 10 11 12 13 13 11 12 13 13 13 13 13 12 12 11 10 10 11 11 11 13 14
3 3 2 3 3 1 1 2 3 2 4 3 2 4 3 4 4 4 2 1 1 1 3 1 1 3 3 0 1 1 4 6 11 13 12 18 18 19 23 21 19 18 18 18 17 18 17 16 15 14 12 10 10 11 12 12 12 11 10 10 11 10 12 13 14 13 12 10 11 10 9 9 10 10 9 10 10 10 13 13 11 11 12 12 12 12 12 11 11 11 10 10 10 10 11 11 12
2 2 3 3 2 1 2 2 3 4 5 2 1 2 3 5 5 3 2 2 1 1 4 3 3 3 3 1 2 1 4 9 12 14 14 18 18 19 22 21 20 18 18 18 18 18 17 16 15 14 12 11 10 11 11 12 12 10 9 10 10 10 10 12 12 13 12 11 11 11 8 8 9 9 8 9 9 10 13 13 10 10 11 11 11 11 11 11 10 10 10 9 9 9 10 10 10
3 1 4 2 2 1 2 2 2 3 4 1 2 2 3 5 4 5 5 2 1 3 5 5 3 2 2 2 1 1 5 12 14 14 14 17 17 17 19 20 19 18 18 18 18 18 18 17 15 14 13 12 11 11 12 11 12 10 9 9 9 9 10 10 11 13 12 11 11 11 10 8 8 8 7 8 8 10 13 13 10 9 8 10 11 11 10 10 10 9 9 8 8 9 9 9 9
3 2 4 2 1 1 3 1 1 1 1 3 1 2 2 2 3 4 6 3 4 5 3 2 3 2 2 1 0 2 7 14 16 16 15 17 17 16 18 18 18 18 19 18 18 18 18 17 15 15 14 13 12 12 12 11 11 10 8 8 8 9 9 9 10 11 11 11 10 10 10 9 8 8 7 7 8 9 13 14 11 9 8 10 11 10 10 9 8 7 8 8 7 8 9 9 8
4 2 4 3 2 1 2 1 1 4 2 3 1 3 3 0 3 3 5 4 5 4 2 1 2 1 2 3 2 4 11 18 17 17 17 17 16 16 17 17 17 18 19 19 18 18 19 18 16 15 14 14 13 13 12 12 11 10 8 7 8 8 8 8 9 10 10 9 10 10 10 9 8 7 7 7 8 8 12 15 11 9 8 9 10 9 9 9 7 7 7 6 6 7 7 8 7
3 3 4 3 1 1 3 2 2 3 3 4 1 2 4 1 2 2 3 3 1 1 1 3 2 1 2 3 1 4 17 21 18 19 18 18 16 14 15 16 16 16 18 19 17 17 19 19 17 16 15 14 14 13 12 12 11 10 9 7 7 7 7 7 8 9 9 9 9 9 9 8 8 6 7 7 7 7 11 14 11 10 9 7 9 9 10 9 7 7 6 5 5 6 6 7 7
3 4 4 2 2 3 4 4 4 3 3 3 2 3 6 0 1 1 1 3 1 1 2 3 2 1 2 3 1 7 20 21 20 21 19 20 18 16 15 14 15 14 16 18 17 17 18 19 18 17 16 15 14 13 13 12 11 11 10 8 7 7 7 7 7 7 7 8 8 7 7 7 7 6 6 6 7 7 9 14 11 10 9 8 9 10 10 9 8 7 5 5 5 5 5 6 6
4 3 3 2 3 3 5 7 6 3 1 4 4 4 7 3 1 1 1 3 3 2 4 3 2 4 4 1 1 11 21 21 23 23 21 21 20 19 17 16 16 16 16 17 18 17 17 18 18 18 17 16 15 14 14 13 13 12 11 9 8 8 8 7 6 7 7 7 7 7 7 7 7 6 5 6 7 6 8 15 13 10 9 9 9 9 10 9 8 7 5 5 5 5 5 5 6
4 3 3 2 5 4 4 6 5 2 1 4 4 2 4 5 4 2 1 2 4 1 4 4 4 5 4 2 5 16 21 22 24 24 22 22 22 21 20 18 18 18 19 19 19 17 18 17 18 19 18 17 16 16 15 15 15 14 13 12 10 9 8 8 7 7 7 7 7 7 7 7 7 6 6 6 7 6 8 14 14 10 9 8 9 10 10 9 8 7 6 5 4 5 4 5 5
2 3 3 4 6 3 3 5 5 3 2 6 4 2 2 3 4 2 3 1 2 3 5 2 4 7 5 2 9 18 19 21 23 23 22 22 23 22 20 20 20 20 21 21 20 18 18 18 18 19 18 18 18 18 17 16 16 15 15 14 12 11 10 9 9 8 7 7 7 7 7 7 7 7 7 7 8 7 7 10 13 11 9 8 9 11 10 9 8 7 6 5 5 5 4 4 5
2 3 3 4 3 2 2 4 4 3 3 5 5 4 2 3 3 3 6 3 3 5 6 7 8 8 6 4 10 17 18 19 20 21 22 22 22 22 21 21 21 21 20 20 21 21 19 19 20 19 17 18 19 19 19 18 17 17 17 16 15 14 12 11 10 10 9 8 8 7 7 7 7 7 8 9 9 9 8 9 11 11 10 8 7 9 9 9 8 8 7 6 6 5 5 5 5
2 1 3 4 2 2 2 3 3 3 3 5 6 5 3 3 3 3 8 5 5 5 5 7 7 6 6 7 13 16 17 19 20 21 22 22 23 23 22 21 20 20 20 21 22 22 20 19 21 21 19 18 18 19 19 19 18 18 19 18 17 16 15 14 12 12 11 9 9 9 8 8 8 8 9 10 10 10 9 9 9 10 10 9 7 7 9 9 8 8 7 7 6 6 6 5 5
2 1 0 3 2 2 0 2 1 3 6 6 6 4 2 4 2 2 7 7 6 4 3 5 6 6 8 10 15 14 15 19 22 24 25 25 25 25 24 22 22 21 22 23 23 24 22 20 22 24 21 19 18 18 18 20 19 18 20 20 19 18 17 16 15 14 13 11 10 10 9 9 9 9 9 10 10 10 10 9 9 9 9 10 8 7 8 9 8 8 8 8 7 7 7 6 6
4 2 0 2 1 2 2 2 1 3 5 5 3 2 3 4 4 2 5 9 5 3 3 4 4 6 10 12 14 15 17 21 23 25 26 26 26 25 24 23 22 22 23 24 24 24 24 22 22 24 24 21 18 18 18 20 20 17 19 21 20 20 19 18 17 16 15 13 12 11 10 10 10 10 10 10 11 10 10 10 10 9 9 10 9 9 9 9 9 9 9 8 8 8 7 7 6
3 3 2 2 1 2 2 2 3 2 2 1 3 4 1 4 3 1 7 8 4 5 4 1 3 6 8 10 13 14 16 19 20 22 22 23 23 22 22 22 21 22 24 25 24 25 25 24 23 24 26 23 19 20 20 19 20 19 19 22 22 21 20 19 19 18 17 16 15 14 13 12 12 11 11 11 12 11 11 11 11 11 10 10 10 10 10 11 11 10 10 10 9 9 8 8 7
2 4 3 4 1 4 1 3 5 3 1 2 4 3 3 3 1 3 6 5 4 3 3 2 5 6 6 7 10 13 14 17 18 19 20 20 20 22 24 24 24 25 26 26 25 25 25 25 25 25 26 24 21 21 22 20 20 20 20 22 23 23 22 21 20 20 19 18 17 16 15 14 13 13 12 12 12 13 12 12 12 12 12 12 12 12 12 13 12 12 12 11 11 10 10 9 9
3 6 5 5 2 3 2 3 5 3 1 2 4 2 3 2 2 4 4 4 4 2 4 3 2 5 6 5 6 10 12 15 16 16 17 18 20 23 25 27 28 28 27 26 26 25 25 25 26 26 26 26 24 23 24 24 23 22 20 21 24 24 23 22 22 22 21 21 19 18 17 16 15 14 14 14 14 14 14 14 14 14 14 13 13 13 13 14 14 14 13 12 12 12 11 11 10
4 6 6 6 4 3 5 4 5 3 2 3 3 4 2 2 1 6 4 4 3 3 2 3 1 3 4 3 4 6 9 11 13 15 17 21 25 26 27 29 31 30 28 28 27 25 26 26 26 27 27 26 27 26 26 27 27 25 22 21 23 24 24 23 23 23 23 22 21 20 20 18 17 16 16 15 15 15 15 15 15 15 15 15 15 15 14 15 15 15 14 14 13 13 13 12 12
3 4 5 5 6 5 6 3 4 2 2 3 1 1 4 2 5 8 4 5 3 4 0 3 2 4 3 3 4 5 8 9 12 17 22 26 27 26 28 31 30 30 30 28 27 26 27 27 26 27 27 27 28 28 28 27 28 27 25 22 22 24 25 25 25 24 24 23 23 22 22 21 20 19 18 17 17 17 17 17 17 16 16 16 16 16 15 15 16 16 16 15 15 15 14 14 14
2 3 4 2 6 4 4 2 4 1 1 5 0 1 6 6 9 8 4 4 4 2 2 3 3 3 3 3 4 5 8 10 15 21 25 25 25 25 27 29 28 29 30 28 28 28 28 27 27 27 27 28 28 29 29 28 28 28 27 25 25 26 26 26 26 25 25 24 24 24 23 23 22 21 20 19 19 18 18 18 18 17 17 17 17 17 17 16 17 17 17 17 16 16 16 15 16
3 3 2 2 1 3 5 3 3 2 0 5 3 2 6 7 8 5 5 3 1 3 5 4 4 4 3 3 4 6 7 12 18 22 23 24 25 26 27 28 28 29 29 29 30 30 29 28 28 28 28 28 29 29 30 29 29 29 29 27 27 28 27 26 26 26 26 26 25 24 23 24 24 23 22 21 21 20 20 19 19 18 18 18 17 17 17 17 17 18 18 18 18 17 17 17 17
4 2 0 3 3 4 7 3 2 2 1 5 5 2 6 7 8 6 5 4 3 2 5 4 5 5 4 4 5 5 7 13 19 23 25 26 27 28 29 30 29 30 30 31 31 30 30 29 29 29 28 29 29 30 30 30 30 29 29 29 28 28 28 28 27 27 27 27 26 25 24 23 23 24 24 24 23 22 22 21 20 20 20 20 19 19 19 18 18 19 20 20 20 20 19 19 19
4 2 3 2 3 2 5 2 3 2 1 3 3 2 3 3 6 6 4 4 5 3 6 6 5 5 5 4 5 5 6 10 15 23 29 29 30 31 32 32 32 31 31 31 31 31 31 31 30 30 30 29 29 29 30 30 31 30 30 29 29 28 29 29 28 28 28 28 28 27 26 24 22 22 23 25 26 25 23 22 21 21 22 22 22 22 20 19 20 21 22 22 23 23 22 21 21
2 2 2 2 3 2 2 2 3 4 1 1 2 1 6 5 7 8 6 2 1 4 7 7 5 6 5 4 4 5 6 7 11 20 26 28 30 32 33 33 33 32 31 31 31 32 32 31 31 31 30 29 29 29 29 29 30 30 30 30 30 29 29 29 29 29 29 29 29 29 28 26 24 22 21 22 24 26 26 25 25 24 23 23 24 24 22 22 23 24 25 25 25 26 25 24 24
5 3 3 2 2 3 3 2 2 5 3 1 2 2 9 10 9 10 7 2 3 6 6 6 6 7 6 5 5 6 6 8 12 17 20 22 25 28 30 32 32 32 32 32 31 31 31 31 31 31 31 30 29 28 27 28 27 28 30 30 30 30 31 30 30 30 30 30 30 29 29 28 26 25 24 23 22 25 28 28 27 27 27 26 26 26 25 26 27 28 28 27 27 28 27 26 25
9 6 5 5 3 3 4 4 3 2 2 2 3 4 8 9 10 11 7 1 3 7 6 5 6 6 6 5 6 6 6 9 12 14 15 16 19 20 22 25 27 30 31 31 31 31 31 32 31 31 32 30 28 27 27 27 27 28 29 29 30 30 31 31 31 31 31 31 31 30 29 29 29 27 26 25 24 26 29 27 26 27 28 27 29 30 31 31 30 30 30 29 28 28 28 28 26
9 6 5 4 4 2 4 3 4 1 3 3 3 3 8 9 11 13 8 1 3 8 7 7 7 6 6 6 7 7 7 9 11 13 15 15 15 15 15 17 19 23 27 29 30 32 33 33 32 32 32 30 29 28 28 28 29 29 29 30 31 30 30 30 30 31 31 31 31 31 31 31 32 31 29 28 25 24 26 28 29 30 27 28 31 32 32 32 30 30 30 29 29 28 29 29 26
6 6 5 2 2 2 3 2 3 2 2 2 1 3 9 9 10 11 7 4 6 7 6 7 7 7 6 6 8 7 6 8 9 13 16 16 15 14 14 15 17 20 22 25 28 30 31 31 31 32 31 30 30 30 29 30 31 30 29 30 30 29 29 30 31 31 31 30 30 30 30 30 31 31 31 31 27 23 26 30 31 30 29 32 34 30 27 30 31 30 30 29 29 29 29 28 26
6 4 5 2 2 2 2 3 4 4 1 2 3 4 8 10 10 10 7 5 6 5 5 6 6 7 7 6 7 7 7 8 7 9 13 15 14 12 13 14 17 19 20 20 22 25 27 28 30 31 30 30 30 30 30 30 30 29 29 28 27 27 27 28 30 30 30 30 30 29 29 28 28 28 29 30 29 27 29 32 31 30 32 34 33 29 27 30 33 31 30 31 30 29 28 28 29
4 4 5 3 2 2 1 2 4 3 2 1 1 3 7 7 7 7 4 4 5 6 6 6 5 7 8 7 6 7 8 8 8 8 10 14 14 11 10 11 12 15 17 18 19 20 22 25 26 27 28 28 28 28 29 29 28 27 27 27 26 25 25 26 27 28 30 30 31 30 30 30 30 30 31 32 33 33 34 35 33 32 34 34 33 31 29 31 34 31 29 31 32 29 28 30 33
1 3 5 4 4 4 3 1 1 2 3 2 2 2 5 4 5 6 4 4 5 5 5 4 3 4 6 6 5 6 6 6 7 7 8 11 13 11 8 6 7 9 12 14 15 17 18 19 21 22 24 25 26 26 27 27 27 26 25 25 25 24 24 24 25 26 28 29 31 32 32 31 31 31 31 31 32 33 34 34 32 33 35 35 35 33 29 30 33 32 29 32 34 32 30 30 32
0 3 6 7 7 6 3 2 3 3 3 3 4 3 4 5 4 6 4 7 7 6 6 6 6 5 4 4 5 4 4 4 5 6 6 8 11 10 8 3 2 4 6 8 10 12 13 15 16 17 19 21 23 24 24 25 26 26 25 25 25 24 24 25 27 28 28 29 30 31 31 31 30 31 30 30 31 31 32 32 33 35 36 35 35 34 31 30 31 33 33 34 35 34 32 29 29
2 4 5 7 8 9 7 5 4 2 1 2 4 3 3 6 6 6 4 6 7 6 6 6 6 6 6 5 5 5 4 3 2 3 5 7 10 11 10 8 5 2 1 3 5 7 9 10 12 13 15 17 18 20 21 23 24 26 26 27 27 26 26 27 28 28 27 28 29 29 29 29 30 30 30 31 31 32 32 32 33 33 34 35 36 35 33 31 33 37 36 35 34 35 34 30 28
3 3 6 8 9 8 7 6 4 1 2 2 4 3 1 4 6 6 4 3 6 7 6 7 6 6 7 6 6 6 5 4 4 4 5 7 10 10 10 10 9 7 5 3 3 4 5 6 8 9 11 12 14 16 18 20 22 24 25 26 26 26 26 27 25 24 25 26 26 27 28 28 29 29 29 30 31 32 32 32 32 32 33 36 37 36 35 35 37 38 36 34 34 36 37 35 32
3 3 6 7 8 7 5 6 4 1 1 2 5 4 1 5 6 6 4 1 3 5 5 6 7 6 7 6 7 6 5 5 4 3 5 7 9 10 11 11 12 11 10 9 7 5 4 4 4 6 7 8 10 12 14 17 18 20 22 23 24 25 26 26 25 24 24 23 24 26 26 27 27 27 28 29 29 31 32 33 33 32 32 32 34 36 37 37 36 35 35 35 36 36 37 38 37
4 6 7 7 7 6 5 5 3 3 2 3 4 3 0 4 6 4 3 0 3 3 2 4 5 5 5 6 6 6 6 5 4 4 5 7 9 10 11 13 14 14 13 12 11 9 8 6 5 3 2 4 5 8 10 12 14 16 19 20 22 23 24 25 25 25 25 24 25 26 26 26 27 27 27 28 28 29 30 32 33 34 33 31 32 34 35 36 35 35 36 36 38 38 37 38 38
8 6 7 7 6 5 4 3 4 4 2 5 4 2 0 2 5 4 2 2 4 4 1 3 4 5 5 5 5 5 5 5 5 6 9 12 14 15 16 16 15 15 14 13 13 12 11 10 8 6 3 1 1 3 5 7 10 13 15 18 20 22 23 23 24 25 26 26 27 28 27 27 27 27 27 27 28 28 28 29 31 32 33 34 34 34 34 34 34 35 34 35 36 38 38 37 38
7 4 6 5 4 4 4 4 4 2 4 6 4 2 1 3 4 2 3 4 4 6 5 5 5 6 5 5 5 5 4 4 5 5 8 12 16 18 21 20 18 17 16 15 15 14 13 12 11 9 6 4 2 0 2 4 7 9 12 15 17 19 21 22 24 25 25 25 27 27 27 27 27 27 27 27 28 27 28 29 29 30 31 33 34 35 35 34 32 32 33 34 35 36 37 35 36
5 5 6 5 2 3 2 3 1 2 5 3 2 1 2 5 6 5 6 6 5 6 4 3 1 3 4 5 5 4 4 4 5 6 6 9 12 16 19 21 21 21 19 17 16 15 14 13 12 10 8 6 4 2 2 3 5 8 10 13 15 17 19 21 23 24 25 25 26 26 26 26 26 27 27 27 27 27 27 28 28 29 30 31 32 33 35 35 33 32 31 33 35 35 36 37 38
4 6 5 5 3 3 2 3 1 3 4 2 3 2 1 4 6 7 9 8 6 6 5 4 4 2 3 4 4 4 4 5 5 6 6 7 11 14 17 20 21 22 21 19 18 17 16 15 13 11 9 8 6 5 4 4 5 6 8 10 13 14 17 19 20 22 23 23 24 25 26 26 26 27 27 27 26 25 25 26 26 27 28 28 29 30 31 33 34 34 33 33 33 34 35 37 40
2 3 5 5 5 4 4 4 3 3 2 2 3 2 3 3 3 5 8 6 4 4 5 4 4 4 4 4 3 2 4 5 5 6 6 8 12 16 18 20 22 23 22 22 21 20 19 18 16 15 13 11 10 8 7 6 5 5 6 8 10 12 14 16 18 19 20 21 23 24 25 25 26 27 26 26 25 25 25 25 25 26 26 26 26 27 28 29 30 32 33 34 34 35 34 35 37
1 1 5 3 4 5 4 3 5 4 1 1 2 3 4 3 3 4 4 3 1 1 3 3 3 3 1 1 2 3 4 4 4 6 6 8 13 17 18 20 22 23 25 25 24 22 21 20 18 17 16 14 12 11 9 8 7 6 5 6 7 9 10 13 14 15 17 18 20 21 23 23 24 25 25 25 25 24 25 25 25 25 25 25 25 25 26 27 28 30 32 33 34 35 35 35 35
2 2 3 4 3 8 6 2 1 3 2 2 1 3 5 3 3 5 2 2 2 3 3 4 4 3 5 5 4 4 4 5 5 5 5 8 13 16 19 21 22 24 26 25 25 24 23 22 21 20 18 17 16 14 13 12 10 9 8 7 7 7 8 9 11 12 13 15 16 18 19 20 21 22 23 23 24 24 24 24 25 26 25 26 26 26 27 27 28 30 31 33 34 35 35 36 37
5 3 5 4 3 5 5 2 3 4 1 3 1 3 4 1 2 4 2 5 2 1 5 5 5 6 7 5 3 2 3 4 4 5 6 9 13 16 19 22 23 25 25 25 25 24 24 24 22 22 21 20 19 18 17 16 15 14 13 11 10 9 9 9 9 10 11 12 14 14 16 17 18 19 20 21 22 23 24 24 25 25 26 26 27 27 28 29 29 31 32 33 34 34 35 37 37
3 4 3 4 3 2 2 3 2 1 2 4 3 3 3 4 4 2 5 9 5 4 6 7 8 8 7 5 3 2 1 3 4 4 5 8 13 16 19 21 23 24 25 25 24 24 24 24 23 23 23 22 21 20 20 19 19 18 17 16 15 13 12 12 11 11 12 12 13 14 14 15 16 16 17 18 20 21 23 24 24 25 26 26 27 28 29 30 31 32 33 34 35 34 34 37 38
3 2 2 2 2 4 2 3 4 3 3 2 3 3 3 6 6 6 10 10 9 9 7 7 9 8 7 6 5 4 3 4 5 5 5 8 14 17 18 20 22 23 24 24 24 24 24 23 22 22 22 21 21 21 21 21 21 20 20 19 18 17 16 15 15 14 14 14 14 14 14 14 15 15 16 17 18 19 21 22 23 25 26 26 28 29 29 30 31 33 34 35 36 34 34 37 37
2 3 4 2 2 2 2 1 2 4 4 3 1 3 5 6 4 7 9 8 9 11 10 9 8 8 7 6 6 5 5 5 5 5 5 9 13 16 18 19 20 22 23 23 23 23 23 23 22 22 22 22 22 21 21 21 21 21 21 21 20 20 20 19 18 17 17 16 16 16 15 16 16 15 15 16 17 18 19 21 22 23 25 26 27 28 29 30 31 33 34 36 36 35 35 37 36
4 4 5 6 4 4 3 1 1 2 3 4 4 3 7 6 3 5 6 6 9 11 12 11 8 8 8 5 6 5 4 5 4 4 6 9 13 15 17 18 20 22 23 23 23 23 23 23 23 23 22 23 23 22 22 21 21 21 22 22 21 21 21 21 21 20 20 20 19 19 18 18 18 17 16 17 17 18 18 20 21 23 24 25 27 28 29 29 31 33 34 36 36 35 37 37 36
Wind_Direction
344 343 344 2 7 346 10 44 94 333 77 92 298 198 223 215 172 172 188 202 165 228 209 130 138 142 120 151 177 160 130 160 172 120 153 294 153 157 154 153 157 155 151 148 142 138 145 148 144 141 132 127 120 117 113 109 112 112 111 111 112 113 113 111 112 109 105 100 100 104 102 98 96 95 92 91 90 93 100 101 98 95 93 89 88 90 92 89 86 87 86 88 91 93 93 94 93
341 338 342 7 18 17 240 56 100 334 51 101 256 182 262 329 171 194 186 192 198 247 190 123 118 98 72 90 117 124 97 334 190 180 34 125 145 155 156 157 159 157 155 154 151 150 152 151 150 146 137 132 122 118 112 105 111 114 113 113 113 114 114 113 113 110 104 104 102 102 100 96 94 93 89 87 87 91 100 101 98 96 92 90 90 93 94 91 89 89 88 89 91 93 94 94 91
337 339 350 352 22 38 95 38 87 33 73 161 263 230 235 153 211 216 197 209 211 202 97 113 112 72 49 56 86 114 50 334 196 212 101 138 148 161 160 159 163 159 159 160 158 159 156 153 151 146 139 135 124 116 109 104 113 117 118 117 116 116 117 114 113 109 102 104 103 101 100 98 94 91 91 89 86 91 100 101 98 96 93 91 92 94 95 93 88 86 89 90 91 93 94 94 91
340 1 8 29 42 38 63 38 115 123 116 193 270 240 207 189 210 226 222 221 162 103 71 124 119 37 38 56 141 89 21 300 192 170 134 156 162 163 160 162 167 162 161 161 160 162 159 155 151 147 145 139 126 116 110 110 115 119 122 121 119 119 120 116 114 108 101 104 107 109 103 96 90 89 88 85 90 96 101 101 98 96 94 94 93 94 97 95 88 87 89 91 93 95 94 93 93
6 40 37 91 85 42 90 69 103 102 171 181 204 246 224 204 198 190 178 184 180 80 51 104 110 331 35 112 141 115 203 271 176 181 158 167 169 160 160 164 166 163 162 161 160 163 162 159 154 151 151 142 127 120 116 114 116 121 122 121 122 121 119 117 116 110 105 105 104 106 104 96 92 93 83 77 96 102 102 102 100 98 96 96 95 96 99 97 93 90 89 90 95 96 95 94 96
94 68 54 75 89 118 122 97 124 153 220 168 156 261 229 199 191 155 102 101 234 284 169 239 180 169 76 322 278 150 202 121 154 185 172 168 168 161 162 166 166 162 161 161 162 164 164 162 158 154 153 146 131 124 121 117 118 123 124 125 126 122 118 119 120 116 111 109 105 104 104 100 96 95 88 87 99 105 105 105 103 102 100 99 99 100 101 100 97 94 90 89 92 95 96 98 101
136 97 43 70 73 33 109 152 192 227 238 167 202 270 239 202 186 139 123 141 296 314 193 243 219 130 116 299 191 166 142 141 149 178 174 167 165 163 165 167 165 163 161 160 163 166 166 163 158 156 156 149 136 130 125 121 121 123 126 130 128 124 122 124 123 120 116 114 112 110 107 104 101 101 99 97 102 107 109 109 106 105 104 103 104 104 103 103 101 98 95 92 94 98 101 104 110
84 122 355 85 60 22 91 126 207 226 346 221 234 263 264 195 177 139 148 179 178 270 284 260 258 116 188 9 133 222 93 150 160 158 166 164 162 165 168 168 165 164 162 162 165 169 167 163 159 160 159 151 141 136 131 126 124 123 124 127 128 128 129 131 129 124 122 119 117 116 114 110 106 108 110 106 105 110 112 111 109 107 106 106 106 106 106 105 104 101 98 99 101 106 110 114 124
55 48 359 87 94 39 51 15 234 240 276 272 251 257 266 167 160 131 152 220 288 220 263 245 245 185 180 82 116 266 90 151 151 148 162 166 165 167 171 172 168 165 164 164 166 169 167 163 162 163 161 154 147 141 137 130 126 124 121 121 123 128 135 137 132 128 127 125 124 121 118 116 113 114 116 110 105 109 114 115 113 109 108 109 109 108 107 107 106 104 101 101 104 109 115 120 128
40 28 129 82 97 60 5 302 241 256 259 268 261 246 188 158 118 100 146 226 251 176 249 255 276 171 138 117 151 265 123 142 142 147 164 168 167 169 173 176 173 168 167 168 168 169 168 166 167 167 165 161 156 148 144 137 130 126 122 122 122 126 136 140 137 132 129 128 127 122 120 116 119 123 117 111 104 108 115 118 117 113 110 110 110 110 109 108 106 104 100 102 107 109 115 122 128
41 360 93 81 76 106 194 222 265 278 269 283 272 245 188 158 111 87 104 251 192 172 248 238 195 154 106 42 204 176 140 146 152 153 162 169 171 171 173 177 178 174 171 172 172 172 170 170 173 171 170 172 166 155 150 142 134 130 124 124 128 132 140 144 144 137 129 129 129 123 121 115 118 123 116 111 104 110 119 122 122 113 109 109 106 108 108 106 104 103 101 103 108 109 118 127 127
86 338 62 90 125 186 205 176 270 288 300 316 159 245 189 136 115 142 167 221 190 197 238 200 188 143 91 309 194 201 154 157 164 158 161 170 173 174 175 178 181 180 174 176 176 174 173 173 178 177 177 180 174 163 157 150 141 133 128 127 128 133 140 148 149 142 133 132 134 128 124 120 121 125 121 114 104 114 123 124 125 115 112 110 103 107 108 106 105 106 110 107 108 113 124 130 128
116 151 91 102 158 164 169 149 281 314 330 290 161 229 167 130 153 185 159 192 176 168 243 213 184 101 120 254 207 241 168 164 167 161 163 170 175 176 178 180 184 185 178 179 180 178 177 177 183 184 183 185 182 172 165 159 151 141 133 130 129 130 136 145 151 148 142 139 143 139 140 140 133 135 132 120 112 121 129 130 127 121 122 117 110 110 113 116 115 116 119 114 112 117 127 131 129
133 148 113 115 94 128 161 128 318 115 277 263 201 190 178 140 173 169 140 176 214 189 271 223 170 121 154 204 259 263 172 167 168 165 164 169 178 179 180 183 187 189 184 183 184 183 182 183 188 189 190 189 187 180 173 167 158 148 140 136 135 134 135 142 152 156 154 151 151 149 155 159 146 143 141 132 134 136 138 136 127 133 140 130 126 120 122 131 133 130 125 119 116 118 125 131 133
132 123 93 104 53 26 166 119 121 134 225 229 151 173 167 58 130 131 157 176 234 224 317 257 196 209 182 144 199 226 169 167 168 166 166 170 178 179 182 186 189 192 190 187 186 187 187 189 193 194 196 193 192 188 180 175 165 155 149 144 143 141 140 143 154 162 163 159 157 158 165 168 156 148 148 151 157 151 145 139 136 158 162 149 142 126 129 143 145 137 128 126 122 121 122 127 134
119 112 74 86 115 180 174 158 134 125 247 214 215 196 141 340 110 125 200 162 260 300 17 239 239 284 180 127 220 178 160 166 167 164 166 171 177 179 183 187 190 193 192 192 190 191 191 193 197 198 201 199 198 194 186 181 174 165 159 156 153 148 147 148 155 164 168 167 165 165 171 174 169 163 161 168 168 158 150 145 152 174 177 172 156 136 140 148 145 142 141 142 134 129 124 124 131
72 81 71 74 153 193 184 175 172 156 242 227 266 209 142 334 311 131 189 102 126 296 331 265 262 267 186 127 70 145 156 164 164 162 165 169 175 179 185 189 190 192 193 194 194 195 194 197 201 202 204 204 202 199 190 186 183 175 170 168 166 161 159 158 156 163 171 175 176 174 178 182 183 182 176 179 176 169 157 153 164 181 185 182 161 146 148 151 153 160 164 156 144 135 126 125 128
60 75 96 120 176 194 179 178 193 165 176 188 208 203 148 159 227 116 111 50 15 310 303 297 297 268 231 201 123 150 157 162 163 162 164 168 173 178 187 192 191 193 195 196 198 199 197 200 203 204 205 205 205 203 195 192 192 185 180 179 178 177 172 171 167 167 173 181 186 184 185 188 192 194 187 187 182 176 161 162 172 182 186 183 170 161 155 157 166 175 175 165 154 145 136 134 135
85 111 108 197 200 201 187 175 185 159 102 152 167 211 153 162 167 117 193 308 8 284 280 324 319 271 241 270 157 158 161 163 167 167 169 172 177 181 186 192 193 195 197 199 200 201 201 202 205 206 207 206 205 205 201 199 199 193 188 187 187 189 185 184 182 178 180 184 190 191 192 194 197 198 195 194 189 184 167 170 178 185 188 183 178 178 171 168 174 181 180 176 168 159 154 147 146
140 118 106 234 211 209 220 185 191 201 137 135 150 186 152 168 164 133 177 228 356 221 237 257 270 247 221 225 158 161 164 166 171 174 177 180 183 187 189 192 195 196 198 200 201 204 204 205 207 207 207 207 205 206 206 205 205 201 195 194 195 197 196 195 193 192 188 188 192 194 198 199 201 202 199 197 197 197 184 179 185 194 200 189 181 183 183 179 181 189 188 185 184 180 179 168 166
136 112 161 222 187 138 216 205 213 215 154 141 142 135 151 192 161 132 147 151 284 246 228 209 225 223 197 191 166 166 167 168 176 180 183 187 190 194 196 197 199 199 200 202 205 208 208 207 210 209 207 209 208 208 209 208 209 209 205 200 200 202 204 203 201 200 198 196 195 195 200 203 204 205 203 200 201 205 202 192 192 200 207 204 194 188 188 188 191 198 199 199 199 198 199 192 188
97 72 182 189 152 121 196 222 214 178 123 121 129 141 172 162 126 133 151 176 240 239 240 225 227 208 178 171 169 170 171 172 179 185 188 191 194 198 201 203 203 203 204 207 210 212 212 209 212 213 211 209 210 210 212 213 211 212 214 208 205 206 207 209 208 207 206 204 201 201 202 203 205 207 207 205 204 210 212 207 202 207 213 216 214 199 193 195 202 209 211 210 209 210 210 208 205
118 288 254 190 195 92 245 278 220 150 124 138 156 166 133 121 136 155 172 207 220 214 248 254 255 210 168 158 165 170 177 180 185 190 192 194 197 199 201 203 205 205 206 211 213 214 216 212 213 217 216 212 210 211 213 216 214 212 218 218 213 210 209 212 214 213 212 211 210 209 209 210 211 212 212 211 211 214 218 219 218 218 221 225 226 217 207 207 213 217 220 220 218 219 217 218 216
94 140 287 187 188 37 319 308 163 145 138 176 186 119 105 158 174 119 213 231 223 251 288 278 254 183 157 156 171 180 184 187 191 195 196 198 200 201 203 205 206 208 209 213 215 217 219 217 215 217 219 217 211 212 214 218 218 214 220 224 223 219 215 215 217 218 217 217 218 217 217 218 219 221 221 219 219 221 223 226 228 230 231 232 234 230 222 220 222 225 227 227 226 225 225 227 226
78 147 174 136 101 349 338 56 78 106 124 169 112 94 253 212 168 152 243 251 265 295 328 36 140 148 161 168 180 187 190 195 197 198 201 204 205 205 207 208 208 211 214 216 217 219 222 221 219 219 221 219 212 216 218 218 220 219 221 225 228 228 223 219 220 222 223 222 223 223 223 223 225 227 227 227 227 228 229 229 231 235 238 238 239 237 232 228 229 231 232 232 233 232 232 234 236
157 138 143 114 42 330 24 82 43 42 52 34 112 75 322 248 211 264 256 279 296 310 18 53 132 150 185 185 189 191 193 199 199 199 203 207 208 209 211 210 210 214 218 219 219 221 223 224 223 222 222 220 216 219 222 220 220 220 222 225 229 233 231 226 223 223 226 227 227 228 228 229 230 232 234 234 233 234 234 235 236 237 240 240 240 240 236 231 231 234 236 237 237 237 237 239 242
137 118 109 87 41 338 52 98 19 1 48 18 156 144 314 285 322 265 259 318 314 45 39 347 155 180 200 203 210 202 202 202 198 199 202 208 211 214 214 212 213 215 218 220 221 222 224 226 226 225 224 223 221 222 226 226 225 222 221 225 230 234 235 232 229 225 226 229 230 232 233 233 234 236 237 238 238 239 239 238 240 240 241 242 242 242 240 235 233 234 237 240 242 243 244 245 246
113 126 102 28 9 34 35 66 12 351 84 22 133 141 318 357 317 234 242 329 346 95 45 340 297 242 230 226 239 225 224 211 200 200 201 208 213 214 215 215 216 216 217 220 221 221 223 227 228 229 227 225 223 224 226 228 231 229 224 224 228 234 237 237 237 232 230 230 231 233 235 237 236 237 239 241 242 242 243 243 243 243 243 244 243 243 241 239 236 236 237 240 243 245 248 250 251
112 119 110 353 1 42 17 21 337 350 92 338 95 110 301 249 240 247 272 332 18 92 64 313 270 278 286 262 261 240 235 218 208 212 211 214 216 217 219 220 219 218 220 221 221 222 223 226 228 230 230 228 226 225 226 226 232 234 230 225 226 231 234 238 241 240 238 234 232 233 235 238 239 240 240 242 245 245 246 245 245 246 246 246 246 246 244 242 241 240 240 240 243 246 248 251 253
116 62 101 37 11 7 352 6 323 14 83 319 54 227 284 258 258 268 311 337 12 28 291 288 271 272 280 269 265 252 241 224 220 222 221 221 222 223 225 226 224 224 225 223 223 225 225 225 226 229 231 231 230 228 228 227 229 234 235 234 232 233 234 236 240 244 245 243 238 235 233 236 239 242 243 244 245 246 248 248 248 249 249 249 248 248 248 246 245 244 245 244 244 246 247 250 252
91 59 66 65 122 262 315 2 346 122 87 347 96 184 273 267 275 288 326 348 67 290 289 288 283 271 261 257 255 258 248 233 234 235 232 231 229 229 230 231 229 228 229 227 227 227 227 227 225 227 229 231 233 230 230 229 229 231 235 238 239 240 239 239 242 245 248 250 250 246 241 239 238 240 243 245 247 248 250 251 252 251 251 251 250 251 251 250 250 249 248 248 248 249 249 250 251
40 102 316 356 167 253 316 1 37 123 306 21 98 204 275 270 272 282 326 30 99 269 290 293 284 270 258 250 242 250 257 248 247 245 241 238 235 234 233 233 232 231 231 231 231 229 229 229 228 229 229 229 232 232 231 231 231 231 233 237 239 241 243 243 245 248 251 253 256 257 256 253 249 246 243 243 245 248 250 252 255 255 252 249 247 246 246 251 255 253 252 250 249 250 251 251 251
358 98 172 241 170 258 316 5 10 25 288 358 80 210 269 280 274 282 318 37 56 338 295 290 284 275 264 251 245 245 257 258 252 248 244 241 238 237 236 236 235 234 234 233 233 232 231 230 229 230 231 230 230 232 233 232 232 232 233 236 239 240 242 243 245 248 250 252 254 257 259 260 259 259 254 248 245 244 247 252 255 258 259 257 253 247 245 250 254 254 252 250 249 249 249 250 250
285 54 115 212 185 197 286 293 338 17 93 286 21 229 245 267 280 289 297 300 331 297 281 282 282 278 267 257 256 248 249 254 251 247 245 243 242 241 240 240 239 237 237 236 235 235 235 233 232 232 232 232 231 231 233 234 234 235 236 237 239 241 242 244 246 247 248 248 249 251 254 256 258 261 263 260 254 248 247 249 249 249 253 255 256 253 251 252 251 250 249 248 248 246 246 247 248
172 154 134 190 226 206 242 245 281 14 49 248 347 276 261 277 287 288 288 219 222 259 264 272 277 274 270 262 252 248 248 251 251 254 255 253 249 247 245 243 242 241 239 238 237 237 237 236 235 235 233 231 231 232 232 234 235 235 237 238 241 243 244 245 247 248 248 248 248 249 250 250 252 255 257 257 257 254 249 248 249 248 247 248 248 247 246 245 244 244 245 244 243 241 244 246 245
155 164 142 154 186 222 240 246 266 18 76 260 252 250 274 286 292 289 285 168 217 267 273 269 269 268 270 264 253 253 250 251 262 271 272 265 260 257 254 250 247 245 243 241 239 237 237 237 236 236 235 231 228 229 228 229 230 231 233 235 238 241 242 243 244 246 247 248 249 249 251 252 253 253 252 250 251 253 249 247 251 252 251 251 250 246 243 241 240 240 241 241 240 240 243 244 242
130 126 109 146 165 211 247 257 298 89 136 256 248 266 283 277 278 279 279 311 268 271 273 272 271 266 267 262 261 261 254 260 277 283 276 271 270 265 260 256 250 247 245 242 239 238 238 237 235 235 235 231 225 223 223 223 224 225 227 230 234 236 239 240 242 244 245 246 247 247 249 251 251 251 250 248 249 257 257 252 252 249 247 251 252 251 249 245 242 242 241 240 241 241 240 239 237
97 124 125 139 177 202 251 248 316 355 151 252 359 325 282 268 270 270 275 291 264 257 257 269 277 272 270 267 270 271 267 277 284 283 282 280 277 271 262 255 247 244 243 241 240 240 239 237 236 237 236 232 228 224 222 222 224 224 225 229 232 235 237 239 241 244 245 246 248 248 247 247 246 245 245 243 242 254 259 253 251 250 248 250 249 251 256 253 247 244 241 239 239 239 238 238 237
86 109 128 148 213 215 285 299 335 6 110 260 345 336 282 272 272 271 276 270 263 267 260 264 275 277 281 278 279 286 286 293 294 290 294 294 289 281 269 258 250 247 245 244 243 242 240 238 239 238 236 234 232 228 224 225 226 227 229 232 234 236 239 242 243 246 247 248 248 248 249 249 249 248 248 247 247 255 259 251 249 250 251 250 246 247 256 253 245 242 242 240 238 236 236 238 240
91 111 131 173 235 152 198 272 331 10 74 258 290 301 286 293 303 295 287 271 282 298 282 268 257 257 271 278 282 283 281 290 297 297 300 303 307 305 289 271 261 252 247 246 245 243 242 240 240 238 236 236 234 232 229 228 228 230 232 235 238 239 242 245 246 248 248 248 249 249 249 251 252 252 252 252 253 256 255 248 245 246 247 247 243 243 250 250 243 241 245 243 236 230 231 238 242
68 145 141 165 192 172 189 209 339 359 29 28 36 335 299 326 341 302 301 333 319 322 335 334 309 266 271 292 295 273 266 272 284 293 301 309 320 331 328 290 269 261 254 251 249 248 247 244 243 240 239 238 236 235 233 230 229 229 230 233 236 238 241 242 243 244 244 245 247 249 250 250 251 251 251 251 253 254 251 247 249 251 249 246 241 240 248 252 245 242 248 244 233 228 230 237 240
226 209 176 171 166 154 141 90 70 45 12 356 31 18 293 319 325 273 299 348 333 339 13 10 346 338 340 340 337 318 300 276 260 274 295 317 336 356 17 16 289 274 260 251 247 247 247 245 243 240 239 238 236 235 234 231 229 228 227 227 229 231 234 237 238 240 242 244 246 248 250 251 251 252 252 253 255 256 254 252 253 253 250 246 245 246 249 252 247 246 249 243 235 235 236 235 236
176 221 168 147 130 125 130 116 88 96 215 326 46 116 252 316 311 271 309 341 325 338 12 9 353 356 5 357 347 346 347 342 310 303 320 344 359 13 31 42 43 30 287 226 222 227 233 237 237 236 236 236 235 234 233 231 229 229 227 228 229 229 232 238 241 243 246 249 251 253 253 253 253 253 253 253 253 255 256 256 256 254 250 249 248 247 249 255 255 251 250 245 243 243 237 232 235
188 210 129 128 122 129 138 113 95 167 212 326 19 94 186 301 280 275 315 352 344 352 1 2 3 2 359 356 353 352 348 346 347 350 356 5 13 22 33 42 51 55 61 95 140 172 197 216 225 230 234 234 234 233 232 232 232 232 231 231 233 234 238 244 249 251 253 255 257 258 259 258 258 257 256 255 253 254 255 256 258 257 255 251 247 246 251 258 257 250 248 248 246 242 235 234 236
231 194 125 123 118 122 120 97 93 40 46 295 334 38 145 266 275 306 346 19 339 346 359 1 356 352 356 1 1 357 349 343 339 339 347 1 18 34 45 52 60 66 68 74 83 97 125 158 188 212 226 232 234 235 236 237 238 239 239 237 238 242 246 251 254 257 258 259 259 261 262 262 262 261 260 259 257 255 254 255 256 256 255 252 248 248 253 255 252 248 247 245 241 237 237 237 235
180 147 101 83 77 81 81 86 103 54 47 232 285 12 150 264 284 308 1 77 242 262 320 337 328 340 358 6 7 3 2 2 1 10 21 30 38 48 59 65 69 71 71 72 75 77 84 95 107 136 188 222 235 239 242 244 244 244 245 244 246 250 253 255 257 258 259 260 261 262 262 263 264 263 263 262 261 259 256 255 253 253 254 255 255 255 255 253 250 249 248 246 244 242 241 238 236
139 119 83 69 42 40 53 51 83 67 327 248 264 324 134 272 284 264 225 206 189 180 134 353 355 15 18 14 14 7 8 15 23 39 50 56 60 65 69 71 72 75 76 77 77 76 77 79 81 85 93 117 214 240 246 249 248 248 249 250 252 255 258 258 257 258 259 260 261 263 264 265 265 265 265 264 263 262 261 259 257 255 254 254 255 257 258 255 253 253 253 250 248 245 241 238 237
106 98 97 87 13 11 27 2 43 98 252 259 275 302 168 216 264 278 267 261 205 161 123 72 39 28 22 10 7 0 357 9 32 49 53 56 57 58 61 63 67 72 73 72 72 72 73 73 73 75 74 73 70 5 259 258 256 254 256 256 258 261 262 261 260 262 264 264 265 268 268 268 267 267 266 265 264 265 264 263 262 260 257 255 254 254 256 258 259 260 258 255 252 250 246 241 239
76 111 113 100 20 16 14 318 350 196 239 269 288 270 202 231 249 262 269 260 226 201 172 123 55 14 12 2 356 348 350 13 44 55 53 52 52 51 54 56 59 64 66 68 71 71 72 72 72 73 70 66 57 30 326 284 275 272 269 266 267 269 269 267 267 268 271 271 272 273 273 272 272 271 270 269 271 271 269 267 265 262 261 259 257 256 255 257 259 260 259 258 255 253 252 249 246
132 144 134 131 119 90 226 262 288 247 254 282 285 268 241 267 264 241 236 236 218 216 219 210 223 258 306 321 319 319 350 24 46 56 57 54 54 55 57 57 57 61 64 69 72 72 73 73 73 73 68 61 52 34 13 344 318 300 289 282 281 279 276 276 275 275 277 277 277 276 276 276 276 276 277 277 279 277 273 270 269 267 265 265 263 261 259 257 257 259 261 262 261 259 257 254 251
174 170 126 147 157 144 194 211 188 220 258 296 292 264 186 208 257 223 224 246 251 238 249 257 254 255 269 289 305 337 20 33 41 58 61 55 58 61 62 61 61 61 64 68 70 72 73 73 73 73 71 66 61 53 44 31 13 345 318 303 296 291 288 286 284 284 284 284 283 282 281 281 280 281 282 283 282 279 276 274 271 269 268 267 266 265 264 261 258 257 257 259 261 262 261 257 254
237 123 103 162 183 135 139 174 169 165 127 297 260 234 216 215 266 278 269 280 308 237 249 268 262 255 244 122 88 63 50 43 47 61 60 55 61 63 63 65 65 65 66 67 68 70 72 73 74 74 72 71 69 66 59 51 42 27 3 340 323 311 303 299 296 296 294 292 290 287 287 286 285 285 285 284 283 280 278 276 273 272 270 268 267 266 265 263 260 257 255 255 255 256 257 258 258
155 123 165 207 161 114 114 152 66 83 143 256 218 240 292 312 269 307 347 152 81 79 165 191 196 158 114 117 105 74 59 51 51 60 60 58 60 62 64 65 65 66 67 67 67 67 69 70 71 71 70 67 65 64 59 54 50 44 33 19 2 345 332 322 315 313 307 302 298 295 294 293 291 291 290 288 286 282 280 278 275 274 273 271 269 267 265 263 261 258 256 255 255 254 254 254 255
122 171 198 176 113 99 109 122 21 43 206 276 303 225 287 307 233 322 84 162 153 107 165 171 170 142 127 137 128 83 53 47 49 58 61 60 59 61 64 64 65 67 68 68 67 67 68 67 66 66 64 60 58 55 53 51 49 48 44 39 32 21 10 359 345 337 328 319 316 313 308 305 304 301 297 292 288 285 282 279 277 276 275 273 271 269 267 266 263 261 259 257 258 256 252 252 251
119 181 171 113 130 164 104 126 141 105 213 277 309 274 259 205 217 258 183 187 194 185 170 157 157 150 145 155 157 148 80 63 65 69 64 60 58 58 61 64 65 67 68 68 68 68 67 65 64 62 59 55 53 50 49 47 46 47 45 43 42 37 30 22 12 2 351 342 338 334 325 320 317 311 305 300 294 290 287 283 280 279 277 275 273 271 269 267 265 263 262 261 260 258 254 253 253
40 109 116 73 127 161 155 145 160 165 183 243 312 323 256 225 215 199 197 195 176 166 166 165 165 159 161 166 164 164 132 92 72 65 58 53 55 56 59 62 63 64 66 67 67 67 65 64 63 61 58 55 53 49 47 45 44 44 42 41 39 36 33 28 22 15 5 358 352 346 339 332 328 323 316 308 302 297 294 291 287 284 282 279 277 275 272 270 268 266 264 263 262 259 256 256 256
106 137 164 170 70 116 157 89 111 139 153 177 233 296 264 247 215 196 202 196 176 167 162 171 174 166 173 178 172 163 126 97 76 68 62 54 56 56 58 62 64 64 64 64 64 63 62 61 59 56 54 52 51 48 46 44 43 41 38 36 33 31 29 25 22 18 12 7 1 355 348 340 336 334 326 316 310 307 303 298 294 289 286 283 281 279 277 274 271 269 267 266 264 261 259 258 258
161 175 184 173 140 123 147 244 261 120 130 164 167 247 269 256 204 213 222 192 188 183 165 165 172 173 180 190 190 172 113 93 83 78 70 58 56 54 54 59 62 62 61 60 60 59 57 56 53 51 49 47 45 44 43 42 41 40 37 34 31 28 25 22 19 16 13 10 6 1 355 348 345 342 335 327 321 316 310 303 298 293 291 288 285 282 280 277 273 272 271 269 266 262 260 260 259